Weather History for Brownwood, TX

Change the Weather History Date:

Friday, November 30, 2012

  Actual Average (KABI) Record (KABI)
Temperature  
Mean Temperature 59 °F 49 °F  
Max Temperature 77 °F 60 °F 81 °F (1950)
Min Temperature 41 °F 37 °F 17 °F (1979)
Degree Days  
Heating Degree Days 6 16  
Month to date heating degree days 329  
Since 1 July heating degree days 433  
Cooling Degree Days 0 0  
Month to date cooling degree days 19  
Year to date cooling degree days 2408  
Growing Degree Days 9 (Base 50)    
Moisture  
Dew Point 52 °F    
Average Humidity 75    
Maximum Humidity 100    
Minimum Humidity 44    
Precipitation  
Precipitation 0.00 in 0.03 in 0.62 in (1931)
Month to date precipitation 1.41  
Year to date precipitation 23.59  
Sea Level Pressure  
Sea Level Pressure 30.09 in    
Wind  
Wind Speed 5 mph (South)    
Max Wind Speed 15 mph    
Max Gust Speed 21 mph    
Visibility 8 miles    
Events Fog    
T = Trace of Precipitation, MM = Missing Value Source: NWS Daily Summary

Daily Weather History Graph

Daily Weather History Graph

Search for Another Location

Airport:

Trip Planner

Search our weather history database for the weather conditions in past years. The results will help you decide how hot, cold, wet, or windy it might be!

Date:

Astronomy

Nov. 30, 2012 Rise Set
Actual Time 7:17 AM CST 5:31 PM CST
Civil Twilight 6:51 AM CST 5:58 PM CST
Nautical Twilight 6:20 AM CST 6:28 PM CST
Astronomical Twilight 5:51 AM CST 6:57 PM CST
Moon 7:27 PM CST (11/30) 8:51 AM CST (11/30)
Length of Visible Light 11h 07m
Length of Day
10h 14m
Waning Gibbous, 96% of the Moon is Illuminated
Nov 30
Waning Gibbous
Dec 6
Last Quarter
Dec 13
New
Dec 19
First Quarter
Dec 28
Full

Hourly Weather History & Observations

Time (CST) Temp. Windchill Dew Point Humidity Pressure Visibility Wind Dir Wind Speed Gust Speed Precip Events Conditions
12:15 AM 51.8 °F - 48.2 °F 88% 30.15 in 9.0 mi South 4.6 mph - N/A   Clear
12:35 AM 50.0 °F - 48.2 °F 94% 30.14 in 6.0 mi SSE 3.5 mph - N/A   Clear
12:55 AM 48.2 °F - 48.2 °F 100% 30.14 in 5.0 mi SE 3.5 mph - N/A   Clear
1:15 AM 50.0 °F - 48.2 °F 94% 30.14 in 7.0 mi SE 5.8 mph - N/A   Clear
1:55 AM 51.8 °F - 50.0 °F 94% 30.13 in 8.0 mi SSE 4.6 mph - N/A   Clear
2:15 AM 50.0 °F - 50.0 °F 100% 30.13 in 7.0 mi SSE 4.6 mph - N/A   Clear
2:35 AM 46.4 °F - 44.6 °F 93% 30.13 in 7.0 mi Calm Calm - N/A   Clear
2:55 AM 46.4 °F - 44.6 °F 93% 30.13 in 5.0 mi Calm Calm - N/A   Clear
3:15 AM 46.4 °F - 46.4 °F 100% 30.12 in 4.0 mi Calm Calm - N/A   Clear
3:35 AM 44.6 °F - 44.6 °F 100% 30.12 in 0.2 mi Calm Calm - N/A Fog Fog
3:55 AM 44.6 °F - 42.8 °F 93% 30.12 in 1.8 mi Calm Calm - N/A   Clear
4:15 AM 44.6 °F - 42.8 °F 93% 30.11 in 1.0 mi Calm Calm - N/A   Clear
4:35 AM 41.0 °F - 41.0 °F 100% 30.11 in 0.8 mi Calm Calm - N/A   Mostly Cloudy
4:55 AM 41.0 °F - 39.2 °F 93% 30.11 in 0.2 mi Calm Calm - N/A Fog Fog
5:15 AM 41.0 °F - 41.0 °F 100% 30.11 in 0.2 mi Calm Calm - N/A Fog Fog
5:35 AM 41.0 °F - 41.0 °F 100% 30.12 in 0.2 mi Calm Calm - N/A Fog Fog
5:55 AM 44.6 °F 43.1 °F 42.8 °F 93% 30.12 in 2.0 mi South 3.5 mph - N/A   Overcast
6:15 AM 44.6 °F - 44.6 °F 100% 30.13 in 5.0 mi Calm Calm - N/A   Overcast
6:35 AM 46.4 °F 45.2 °F 46.4 °F 100% 30.13 in 5.0 mi SSE 3.5 mph - N/A   Overcast
6:55 AM 50.0 °F - 50.0 °F 100% 30.14 in 6.0 mi Calm Calm - N/A   Overcast
7:15 AM 48.2 °F - 48.2 °F 100% 30.14 in 4.0 mi Calm Calm - N/A   Overcast
7:35 AM 48.2 °F - 46.4 °F 93% 30.15 in 4.0 mi Calm Calm - N/A   Overcast
7:55 AM 50.0 °F - 48.2 °F 94% 30.14 in 7.0 mi Calm Calm - N/A   Overcast
8:15 AM 53.6 °F - 51.8 °F 94% 30.15 in 6.0 mi SSE 3.5 mph - N/A   Overcast
8:35 AM 55.4 °F - 51.8 °F 88% 30.16 in 7.0 mi South 3.5 mph - N/A   Overcast
8:55 AM 55.4 °F - 51.8 °F 88% 30.16 in 7.0 mi South 4.6 mph - N/A   Overcast
9:15 AM 55.4 °F - 53.6 °F 94% 30.16 in 9.0 mi South 6.9 mph - N/A   Overcast
9:35 AM 57.2 °F - 53.6 °F 88% 30.16 in 9.0 mi South 3.5 mph - N/A   Overcast
9:55 AM 60.8 °F - 53.6 °F 77% 30.16 in 9.0 mi South 6.9 mph - N/A   Overcast
10:15 AM 62.6 °F - 53.6 °F 72% 30.16 in 10.0 mi SW 6.9 mph - N/A   Mostly Cloudy
10:35 AM 64.4 °F - 55.4 °F 73% 30.15 in 10.0 mi WSW 15.0 mph 20.7 mph N/A   Partly Cloudy
10:55 AM 66.2 °F - 55.4 °F 68% 30.15 in 10.0 mi SSW 10.4 mph - N/A   Scattered Clouds
11:15 AM 68.0 °F - 55.4 °F 64% 30.14 in 10.0 mi SW 9.2 mph 18.4 mph N/A   Partly Cloudy
11:35 AM 68.0 °F - 55.4 °F 64% 30.13 in 10.0 mi South 9.2 mph - N/A   Clear
11:55 AM 69.8 °F - 55.4 °F 60% 30.11 in 10.0 mi South 10.4 mph - N/A   Clear
12:15 PM 71.6 °F - 55.4 °F 57% 30.09 in 10.0 mi South 10.4 mph 17.3 mph N/A   Clear
12:55 PM 73.4 °F - 55.4 °F 53% 30.07 in 10.0 mi SSW 11.5 mph 19.6 mph N/A   Clear
1:15 PM 75.2 °F - 55.4 °F 50% 30.05 in 10.0 mi SW 10.4 mph 18.4 mph N/A   Clear
1:35 PM 75.2 °F - 55.4 °F 50% 30.04 in 10.0 mi South 11.5 mph 18.4 mph N/A   Clear
1:55 PM 77.0 °F - 53.6 °F 44% 30.03 in 10.0 mi SSW 11.5 mph - N/A   Clear
2:15 PM 77.0 °F - 55.4 °F 47% 30.03 in 10.0 mi South 12.7 mph 17.3 mph N/A   Clear
2:35 PM 75.2 °F - 55.4 °F 50% 30.02 in 10.0 mi South 9.2 mph - N/A   Clear
2:55 PM 77.0 °F - 53.6 °F 44% 30.02 in 10.0 mi SSW 12.7 mph 17.3 mph N/A   Clear
3:15 PM 77.0 °F - 55.4 °F 47% 30.02 in 10.0 mi SSW 12.7 mph - N/A   Clear
3:35 PM 77.0 °F - 55.4 °F 47% 30.02 in 10.0 mi SSW 11.5 mph - N/A   Clear
3:55 PM 77.0 °F - 55.4 °F 47% 30.02 in 10.0 mi South 11.5 mph - N/A   Clear
4:15 PM 77.0 °F - 53.6 °F 44% 30.01 in 10.0 mi South 13.8 mph 17.3 mph N/A   Clear
4:35 PM 77.0 °F - 53.6 °F 44% 30.01 in 10.0 mi SSW 12.7 mph - N/A   Clear
4:55 PM 75.2 °F - 53.6 °F 47% 30.01 in 10.0 mi South 10.4 mph - N/A   Clear
5:15 PM 75.2 °F - 53.6 °F 47% 30.01 in 10.0 mi South 6.9 mph - N/A   Clear
5:35 PM 73.4 °F - 53.6 °F 50% 30.01 in 10.0 mi SE 4.6 mph - N/A   Clear
5:55 PM 69.8 °F - 53.6 °F 56% 30.02 in 10.0 mi SE 5.8 mph - N/A   Clear
6:15 PM 68.0 °F - 51.8 °F 56% 30.02 in 10.0 mi SE 5.8 mph - N/A   Scattered Clouds
6:35 PM 68.0 °F - 53.6 °F 60% 30.02 in 10.0 mi SSE 4.6 mph - N/A   Mostly Cloudy
6:55 PM 68.0 °F - 53.6 °F 60% 30.02 in 10.0 mi SSE 5.8 mph - N/A   Mostly Cloudy
7:15 PM 66.2 °F - 53.6 °F 64% 30.02 in 10.0 mi SSE 8.1 mph - N/A   Scattered Clouds
7:35 PM 68.0 °F - 55.4 °F 64% 30.02 in 10.0 mi SSE 9.2 mph - N/A   Partly Cloudy
7:55 PM 66.2 °F - 55.4 °F 68% 30.03 in 10.0 mi South 8.1 mph - N/A   Scattered Clouds
8:15 PM 66.2 °F - 55.4 °F 68% 30.03 in 10.0 mi SSE 9.2 mph - N/A   Scattered Clouds
8:35 PM 66.2 °F - 55.4 °F 68% 30.04 in 10.0 mi SSE 9.2 mph - N/A   Partly Cloudy
8:55 PM 66.2 °F - 55.4 °F 68% 30.04 in 10.0 mi South 9.2 mph - N/A   Partly Cloudy
9:15 PM 64.4 °F - 57.2 °F 77% 30.04 in 10.0 mi South 10.4 mph - N/A   Partly Cloudy
9:35 PM 64.4 °F - 57.2 °F 77% 30.05 in 10.0 mi SSE 9.2 mph - N/A   Clear
9:55 PM 64.4 °F - 55.4 °F 73% 30.05 in 10.0 mi South 9.2 mph - N/A   Clear
10:15 PM 62.6 °F - 55.4 °F 77% 30.06 in 10.0 mi South 8.1 mph - N/A   Clear
10:35 PM 62.6 °F - 57.2 °F 82% 30.06 in 10.0 mi South 8.1 mph - N/A   Clear
10:55 PM 62.6 °F - 57.2 °F 82% 30.06 in 10.0 mi South 9.2 mph - N/A   Clear
11:15 PM 60.8 °F - 57.2 °F 88% 30.06 in 10.0 mi SSE 9.2 mph - N/A   Clear
11:35 PM 60.8 °F - 57.2 °F 88% 30.06 in 10.0 mi South 6.9 mph - N/A   Clear
11:55 PM 59.0 °F - 55.4 °F 88% 30.06 in 10.0 mi SSE 4.6 mph - N/A   Clear